Location: Mt. Bigelow
(32.4165°N, 110.7345°W)
Time: 13:49:41
(UTC-07:00)

OTV 5 (USA 277) - Visible Passes

Search period start: 22 February 2018 00:00
Search period end: 04 March 2018 00:00
Orbit: 404 x 417 km, 43.0° (Epoch: 07 September)

Date Brightness Start Highest point End Pass type
(mag) Time Alt. Az. Time Alt. Az. Time Alt. Az.
22 Feb ? 04:51:51 19° ENE 04:51:51 19° ENE 04:52:54 10° ENE visible
22 Feb ? 06:24:41 10° WNW 06:27:13 20° NNW 06:29:45 10° NNE visible
23 Feb ? 05:36:06 26° NNW 05:36:06 26° NNW 05:38:51 10° NE visible
24 Feb ? 04:47:30 13° NE 04:47:30 13° NE 04:47:56 10° NE visible
24 Feb ? 06:20:54 10° NW 06:22:46 14° N 06:24:39 10° NNE visible
25 Feb ? 05:31:35 16° N 05:31:35 16° N 05:33:41 10° NNE visible
26 Feb ? 06:16:50 10° NNW 06:18:25 13° N 06:20:00 10° NNE visible
27 Feb ? 05:26:53 13° N 05:27:07 13° N 05:28:45 10° NNE visible
28 Feb ? 06:12:03 10° NNW 06:14:03 15° N 06:16:02 10° NE visible
01 Mar ? 05:22:09 13° N 05:22:46 13° N 05:24:29 10° NE visible
02 Mar ? 06:06:54 10° NW 06:09:34 22° NNE 06:12:14 10° ENE visible
03 Mar ? 05:17:31 16° N 05:18:21 18° NNE 05:20:40 10° ENE visible
